CLF2 EGBB-EDHL

Flight info

Callsign CLF2
Flight time 1h 33m
Altitude 45000
Route DTY P166 BANTO P155 SOMVA/N0432F370 DCT MAVAS DCT ANDIK M105 RIBSO T904 BOGMU
Aircraft C25C/M-SDE2E3FGHRWXY/LB1

Departure

Time 2026-04-30 10:58
Airport Birmingham Airport (EGBB)

Arrival

Time 2026-04-30 12:32
Airport Lübeck Blankensee Airport (EDHL)
Time Latitude Longitude Altitude Speed Heading
2026-04-30 10:47 52.45039 -1.74933 322 ft 0 kts 56°
2026-04-30 10:52 52.45047 -1.74914 321 ft 6 kts 57°
2026-04-30 10:53 52.45083 -1.74843 320 ft 11 kts 30°
2026-04-30 10:53 52.45151 -1.74891 322 ft 12 kts 324°
2026-04-30 10:53 52.45177 -1.75001 321 ft 11 kts 238°
2026-04-30 10:53 52.45187 -1.75111 322 ft 12 kts 326°
2026-04-30 10:54 52.45262 -1.75118 320 ft 13 kts 52°
2026-04-30 10:54 52.45308 -1.75000 319 ft 0 kts 56°
2026-04-30 10:54 52.45316 -1.74980 319 ft 9 kts 56°
2026-04-30 10:55 52.45380 -1.74817 318 ft 22 kts 57°
2026-04-30 10:55 52.45457 -1.74622 317 ft 14 kts 47°
2026-04-30 10:55 52.45514 -1.74620 317 ft 14 kts 330°
2026-04-30 10:55 52.45603 -1.74715 313 ft 18 kts 328°
2026-04-30 10:56 52.45725 -1.74854 305 ft 24 kts 325°
2026-04-30 10:56 52.45880 -1.75019 300 ft 28 kts 327°
2026-04-30 10:56 52.46025 -1.75180 301 ft 26 kts 327°
2026-04-30 10:56 52.46166 -1.75338 297 ft 19 kts 327°
2026-04-30 10:57 52.46218 -1.75448 297 ft 17 kts 260°
2026-04-30 10:57 52.46165 -1.75587 304 ft 13 kts 234°
2026-04-30 10:57 52.46099 -1.75595 304 ft 0 kts 149°
2026-04-30 10:57 52.46099 -1.75594 304 ft 1 kts 148°
2026-04-30 10:58 52.46033 -1.75520 304 ft 15 kts 149°
2026-04-30 10:58 52.45904 -1.75377 311 ft 51 kts 145°
2026-04-30 10:58 52.45327 -1.74716 386 ft 140 kts 144°
2026-04-30 10:58 52.44429 -1.73737 978 ft 169 kts 141°
2026-04-30 10:59 52.43427 -1.72586 1585 ft 184 kts 139°
2026-04-30 10:59 52.42319 -1.71379 2328 ft 192 kts 140°
2026-04-30 10:59 52.41182 -1.70231 3575 ft 192 kts 147°
2026-04-30 10:59 52.39882 -1.69663 4469 ft 196 kts 157°
2026-04-30 11:00 52.38541 -1.69080 4805 ft 201 kts 157°
2026-04-30 11:00 52.37291 -1.68221 5284 ft 195 kts 145°
2026-04-30 11:00 52.36110 -1.67109 5654 ft 194 kts 134°
2026-04-30 11:00 52.35290 -1.65386 5894 ft 191 kts 115°
2026-04-30 11:01 52.34919 -1.63319 5948 ft 191 kts 99°
2026-04-30 11:01 52.34669 -1.61160 5962 ft 195 kts 100°
2026-04-30 11:01 52.34415 -1.58951 5966 ft 199 kts 100°
2026-04-30 11:01 52.33980 -1.56802 5972 ft 201 kts 116°
2026-04-30 11:02 52.33323 -1.54804 5981 ft 198 kts 114°
2026-04-30 11:02 52.32707 -1.52795 6033 ft 197 kts 115°
2026-04-30 11:02 52.32082 -1.50814 6033 ft 195 kts 115°
2026-04-30 11:02 52.31460 -1.48851 6044 ft 194 kts 116°
2026-04-30 11:03 52.30781 -1.46979 6049 ft 195 kts 117°
2026-04-30 11:03 52.30095 -1.45034 6055 ft 201 kts 117°
2026-04-30 11:03 52.29381 -1.43011 6068 ft 209 kts 117°
2026-04-30 11:04 52.27876 -1.38801 6066 ft 218 kts 117°
2026-04-30 11:04 52.27356 -1.37346 6064 ft 220 kts 117°
2026-04-30 11:04 52.26829 -1.35858 6058 ft 222 kts 117°
2026-04-30 11:04 52.26041 -1.33681 6068 ft 224 kts 118°
2026-04-30 11:05 52.25251 -1.31471 6067 ft 226 kts 117°
2026-04-30 11:05 52.24453 -1.29244 6062 ft 228 kts 118°
2026-04-30 11:05 52.23649 -1.27004 6064 ft 229 kts 118°
2026-04-30 11:05 52.22838 -1.24756 6065 ft 231 kts 118°
2026-04-30 11:06 52.22027 -1.22494 6062 ft 231 kts 118°
2026-04-30 11:06 52.21210 -1.20236 6058 ft 232 kts 118°
2026-04-30 11:06 52.20389 -1.17960 6050 ft 233 kts 118°
2026-04-30 11:06 52.19564 -1.15670 6045 ft 234 kts 118°
2026-04-30 11:07 52.18785 -1.13347 6030 ft 233 kts 110°
2026-04-30 11:07 52.18538 -1.10754 6029 ft 232 kts 91°
2026-04-30 11:07 52.18853 -1.08207 6446 ft 238 kts 70°
2026-04-30 11:07 52.19495 -1.05749 7702 ft 236 kts 73°
2026-04-30 11:08 52.20106 -1.03225 8799 ft 243 kts 71°
2026-04-30 11:08 52.20771 -1.00657 9919 ft 248 kts 71°
2026-04-30 11:08 52.21453 -0.98035 10947 ft 253 kts 71°
2026-04-30 11:08 52.22142 -0.95356 11955 ft 260 kts 71°
2026-04-30 11:09 52.22865 -0.92500 12404 ft 286 kts 71°
2026-04-30 11:09 52.23660 -0.89402 13049 ft 300 kts 70°
2026-04-30 11:09 52.24470 -0.86251 14045 ft 303 kts 71°
2026-04-30 11:09 52.25147 -0.82979 14852 ft 306 kts 78°
2026-04-30 11:10 52.25730 -0.79623 15697 ft 309 kts 76°
2026-04-30 11:10 52.26344 -0.76289 16520 ft 312 kts 76°
2026-04-30 11:10 52.26966 -0.72866 17335 ft 316 kts 76°
2026-04-30 11:10 52.27588 -0.69400 18156 ft 320 kts 77°
2026-04-30 11:11 52.28213 -0.65896 18911 ft 324 kts 77°
2026-04-30 11:11 52.28850 -0.62346 19633 ft 327 kts 77°
2026-04-30 11:11 52.29493 -0.58753 20354 ft 331 kts 77°
2026-04-30 11:11 52.30143 -0.55113 21086 ft 336 kts 77°
2026-04-30 11:12 52.30799 -0.51424 21811 ft 340 kts 77°
2026-04-30 11:12 52.31462 -0.47688 22559 ft 344 kts 77°
2026-04-30 11:12 52.32134 -0.43903 23287 ft 349 kts 77°
2026-04-30 11:12 52.32806 -0.40092 23975 ft 353 kts 77°
2026-04-30 11:13 52.33493 -0.36216 24602 ft 356 kts 77°
2026-04-30 11:13 52.34180 -0.32311 25216 ft 359 kts 77°
2026-04-30 11:13 52.34875 -0.28366 25784 ft 362 kts 77°
2026-04-30 11:13 52.35547 -0.24440 26317 ft 363 kts 79°
2026-04-30 11:14 52.35748 -0.20345 26834 ft 362 kts 93°
2026-04-30 11:14 52.35735 -0.16206 27341 ft 364 kts 92°
2026-04-30 11:14 52.35712 -0.12051 27810 ft 367 kts 92°
2026-04-30 11:14 52.35675 -0.07864 28275 ft 369 kts 92°
2026-04-30 11:15 52.35645 -0.03658 28784 ft 370 kts 92°
2026-04-30 11:15 52.35617 0.00540 29409 ft 368 kts 92°
2026-04-30 11:15 52.35588 0.04711 30036 ft 366 kts 92°
2026-04-30 11:15 52.35552 0.08865 30585 ft 364 kts 92°
2026-04-30 11:16 52.35518 0.13000 31067 ft 362 kts 92°
2026-04-30 11:16 52.35485 0.17058 31524 ft 361 kts 92°
2026-04-30 11:16 52.35448 0.21153 31969 ft 359 kts 92°
2026-04-30 11:16 52.35408 0.25288 32402 ft 358 kts 92°
2026-04-30 11:17 52.35371 0.29305 32824 ft 357 kts 92°
2026-04-30 11:17 52.35329 0.33354 33244 ft 355 kts 92°
2026-04-30 11:17 52.35289 0.37388 33631 ft 354 kts 92°
2026-04-30 11:17 52.35246 0.41406 34014 ft 353 kts 92°
2026-04-30 11:18 52.35200 0.45422 34370 ft 352 kts 92°
2026-04-30 11:18 52.35108 0.53450 34904 ft 353 kts 92°
2026-04-30 11:18 52.35060 0.57477 35160 ft 353 kts 92°
2026-04-30 11:19 52.35012 0.61453 35430 ft 354 kts 92°
2026-04-30 11:19 52.34959 0.65484 35690 ft 354 kts 92°
2026-04-30 11:19 52.34908 0.69521 35935 ft 355 kts 92°
2026-04-30 11:19 52.34853 0.73582 36194 ft 356 kts 92°
2026-04-30 11:20 52.34797 0.77630 36459 ft 356 kts 92°
2026-04-30 11:20 52.34741 0.81679 36729 ft 357 kts 92°
2026-04-30 11:20 52.34682 0.85737 36994 ft 357 kts 92°
2026-04-30 11:20 52.34624 0.89672 37247 ft 358 kts 92°
2026-04-30 11:21 52.34563 0.93695 37514 ft 358 kts 92°
2026-04-30 11:21 52.34501 0.97762 37794 ft 358 kts 92°
2026-04-30 11:21 52.34436 1.01841 38067 ft 359 kts 92°
2026-04-30 11:21 52.34370 1.05927 38354 ft 359 kts 92°
2026-04-30 11:22 52.34303 1.10015 38651 ft 359 kts 92°
2026-04-30 11:22 52.34236 1.14044 38941 ft 360 kts 92°
2026-04-30 11:22 52.34165 1.18134 39160 ft 360 kts 92°
2026-04-30 11:22 52.34093 1.22239 39372 ft 362 kts 92°
2026-04-30 11:23 52.34019 1.26357 39592 ft 363 kts 92°
2026-04-30 11:23 52.33946 1.30477 39827 ft 363 kts 92°
2026-04-30 11:23 52.33790 1.38763 40303 ft 365 kts 92°
2026-04-30 11:24 52.33709 1.42923 40553 ft 366 kts 92°
2026-04-30 11:24 52.33627 1.47090 40797 ft 367 kts 92°
2026-04-30 11:24 52.33545 1.51265 41028 ft 368 kts 92°
2026-04-30 11:25 52.33373 1.59640 41522 ft 369 kts 92°
2026-04-30 11:25 52.33284 1.63846 41769 ft 370 kts 92°
2026-04-30 11:25 52.33103 1.72271 42243 ft 372 kts 92°
2026-04-30 11:26 52.32915 1.80693 42687 ft 374 kts 92°
2026-04-30 11:26 52.32818 1.84957 42891 ft 376 kts 92°
2026-04-30 11:26 52.32718 1.89248 43099 ft 377 kts 92°
2026-04-30 11:27 52.32617 1.93554 43293 ft 379 kts 92°
2026-04-30 11:27 52.32514 1.97867 43523 ft 380 kts 92°
2026-04-30 11:27 52.32409 2.02202 43721 ft 382 kts 92°
2026-04-30 11:27 52.32301 2.06555 43930 ft 384 kts 92°
2026-04-30 11:28 52.32082 2.15298 44363 ft 386 kts 92°
2026-04-30 11:28 52.31967 2.19688 44557 ft 387 kts 92°
2026-04-30 11:28 52.31852 2.24100 44762 ft 389 kts 92°
2026-04-30 11:29 52.31736 2.28517 44964 ft 390 kts 92°
2026-04-30 11:29 52.31618 2.32898 45149 ft 391 kts 92°
2026-04-30 11:29 52.31372 2.41834 45314 ft 398 kts 92°
2026-04-30 11:30 52.30981 2.55617 45357 ft 411 kts 92°
2026-04-30 11:31 52.31048 2.65016 45361 ft 413 kts 81°
2026-04-30 11:31 52.32433 2.74045 45359 ft 408 kts 73°
2026-04-30 11:32 52.33998 2.82953 45362 ft 407 kts 73°
2026-04-30 11:32 52.35555 2.91843 45362 ft 405 kts 73°
2026-04-30 11:33 52.37854 3.05052 45359 ft 403 kts 73°
2026-04-30 11:33 52.39383 3.13888 45352 ft 402 kts 73°
2026-04-30 11:34 52.40899 3.22699 45354 ft 402 kts 73°
2026-04-30 11:34 52.42408 3.31515 45350 ft 401 kts 73°
2026-04-30 11:35 52.43907 3.40315 45352 ft 401 kts 73°
2026-04-30 11:35 52.45388 3.49057 45358 ft 400 kts 73°
2026-04-30 11:36 52.46870 3.57850 45357 ft 400 kts 74°
2026-04-30 11:36 52.48347 3.66654 45355 ft 400 kts 74°
2026-04-30 11:37 52.49814 3.75446 45360 ft 399 kts 74°
2026-04-30 11:37 52.51274 3.84237 45365 ft 399 kts 74°
2026-04-30 11:38 52.52719 3.92988 45370 ft 399 kts 74°
2026-04-30 11:38 52.54165 4.01785 45368 ft 399 kts 74°
2026-04-30 11:39 52.55605 4.10598 45369 ft 399 kts 74°
2026-04-30 11:39 52.57037 4.19405 45366 ft 398 kts 74°
2026-04-30 11:40 52.58454 4.28163 45370 ft 398 kts 74°
2026-04-30 11:40 52.59872 4.36969 45370 ft 398 kts 74°
2026-04-30 11:41 52.61266 4.45679 45373 ft 398 kts 74°
2026-04-30 11:41 52.62670 4.54496 45375 ft 398 kts 74°
2026-04-30 11:42 52.64067 4.63313 45382 ft 398 kts 74°
2026-04-30 11:42 52.65458 4.72140 45383 ft 398 kts 75°
2026-04-30 11:43 52.66843 4.80977 45384 ft 398 kts 75°
2026-04-30 11:43 52.68214 4.89768 45388 ft 398 kts 75°
2026-04-30 11:44 52.69363 4.97179 45390 ft 398 kts 75°
2026-04-30 11:44 52.70722 5.05983 45390 ft 397 kts 75°
2026-04-30 11:45 52.72079 5.14826 45391 ft 398 kts 75°
2026-04-30 11:45 52.73433 5.23689 45394 ft 398 kts 75°
2026-04-30 11:46 52.75113 5.32390 45403 ft 397 kts 70°
2026-04-30 11:46 52.76956 5.40985 45407 ft 397 kts 70°
2026-04-30 11:47 52.78811 5.49578 45413 ft 396 kts 70°
2026-04-30 11:47 52.80636 5.58099 45413 ft 396 kts 70°
2026-04-30 11:48 52.82468 5.66680 45414 ft 395 kts 70°
2026-04-30 11:48 52.84292 5.75262 45418 ft 395 kts 70°
2026-04-30 11:49 52.86111 5.83852 45421 ft 395 kts 70°
2026-04-30 11:49 52.87920 5.92439 45429 ft 395 kts 70°
2026-04-30 11:50 52.89723 6.01027 45434 ft 395 kts 70°
2026-04-30 11:50 52.91519 6.09620 45436 ft 394 kts 70°
2026-04-30 11:51 52.93307 6.18216 45445 ft 394 kts 70°
2026-04-30 11:51 52.95090 6.26819 45452 ft 395 kts 70°
2026-04-30 11:52 52.96855 6.35379 45455 ft 395 kts 70°
2026-04-30 11:52 52.98628 6.44009 45458 ft 395 kts 70°
2026-04-30 11:53 53.00393 6.52637 45465 ft 395 kts 70°
2026-04-30 11:53 53.02153 6.61280 45465 ft 394 kts 70°
2026-04-30 11:54 53.03902 6.69908 45463 ft 394 kts 70°
2026-04-30 11:54 53.05644 6.78542 45461 ft 394 kts 70°
2026-04-30 11:55 53.07380 6.87178 45463 ft 394 kts 70°
2026-04-30 11:55 53.09098 6.95764 45465 ft 393 kts 70°
2026-04-30 11:56 53.10820 7.04404 45464 ft 393 kts 70°
2026-04-30 11:56 53.12532 7.13036 45478 ft 392 kts 71°
2026-04-30 11:57 53.14234 7.21663 45478 ft 392 kts 71°
2026-04-30 11:57 53.15934 7.30322 45481 ft 392 kts 71°
2026-04-30 11:58 53.17623 7.38957 45479 ft 392 kts 71°
2026-04-30 11:58 53.19306 7.47608 45476 ft 392 kts 71°
2026-04-30 11:59 53.20969 7.56193 45479 ft 392 kts 71°
2026-04-30 11:59 53.22639 7.64859 45445 ft 392 kts 71°
2026-04-30 12:00 53.23478 7.69211 44960 ft 395 kts 71°
2026-04-30 12:00 53.24317 7.73575 44435 ft 393 kts 71°
2026-04-30 12:00 53.25144 7.77908 43919 ft 390 kts 71°
2026-04-30 12:00 53.25967 7.82210 43412 ft 387 kts 71°
2026-04-30 12:01 53.26784 7.86495 42906 ft 385 kts 71°
2026-04-30 12:01 53.27592 7.90740 42402 ft 382 kts 71°
2026-04-30 12:01 53.28384 7.94914 41909 ft 380 kts 71°
2026-04-30 12:01 53.29182 7.99126 41410 ft 378 kts 71°
2026-04-30 12:02 53.29971 8.03300 40918 ft 376 kts 71°
2026-04-30 12:02 53.30754 8.07459 40420 ft 374 kts 71°
2026-04-30 12:02 53.31533 8.11596 39939 ft 372 kts 70°
2026-04-30 12:02 53.32306 8.15711 39445 ft 370 kts 70°
2026-04-30 12:03 53.33175 8.19740 38927 ft 367 kts 66°
2026-04-30 12:03 53.34997 8.27609 37965 ft 358 kts 67°
2026-04-30 12:03 53.35882 8.31482 37495 ft 355 kts 67°
2026-04-30 12:04 53.36771 8.35328 37038 ft 353 kts 67°
2026-04-30 12:04 53.37656 8.39172 36571 ft 354 kts 67°
2026-04-30 12:04 53.38543 8.43037 36101 ft 357 kts 68°
2026-04-30 12:04 53.39431 8.46933 35631 ft 359 kts 68°
2026-04-30 12:05 53.40333 8.50841 35158 ft 361 kts 66°
2026-04-30 12:05 53.41381 8.54667 34681 ft 362 kts 64°
2026-04-30 12:05 53.42414 8.58470 34176 ft 364 kts 65°
2026-04-30 12:05 53.43450 8.62343 33693 ft 364 kts 65°
2026-04-30 12:06 53.44495 8.66213 33212 ft 364 kts 64°
2026-04-30 12:06 53.45541 8.70080 32731 ft 364 kts 64°
2026-04-30 12:06 53.46586 8.73951 32251 ft 364 kts 64°
2026-04-30 12:06 53.47627 8.77832 31770 ft 365 kts 64°
2026-04-30 12:07 53.48670 8.81720 31289 ft 365 kts 64°
2026-04-30 12:07 53.49714 8.85616 30800 ft 366 kts 64°
2026-04-30 12:07 53.50758 8.89512 30290 ft 366 kts 64°
2026-04-30 12:07 53.51799 8.93413 29799 ft 365 kts 64°
2026-04-30 12:08 53.53014 8.97134 29317 ft 363 kts 57°
2026-04-30 12:08 53.54500 9.00554 28837 ft 362 kts 50°
2026-04-30 12:08 53.56232 9.03609 28358 ft 361 kts 43°
2026-04-30 12:08 53.58179 9.06251 27967 ft 358 kts 37°
2026-04-30 12:09 53.60216 9.08662 27498 ft 358 kts 36°
2026-04-30 12:09 53.62243 9.11091 27028 ft 357 kts 37°
2026-04-30 12:09 53.64270 9.13534 26554 ft 357 kts 37°
2026-04-30 12:09 53.66269 9.15928 26084 ft 357 kts 37°
2026-04-30 12:10 53.68321 9.18389 25610 ft 357 kts 37°
2026-04-30 12:10 53.70340 9.20818 25140 ft 357 kts 37°
2026-04-30 12:10 53.72336 9.23221 24669 ft 357 kts 37°
2026-04-30 12:10 53.74356 9.25657 24198 ft 357 kts 37°
2026-04-30 12:11 53.76377 9.28096 23685 ft 356 kts 37°
2026-04-30 12:11 53.78387 9.30527 23215 ft 354 kts 38°
2026-04-30 12:11 53.80127 9.33406 22743 ft 349 kts 53°
2026-04-30 12:11 53.81349 9.36927 22286 ft 347 kts 67°
2026-04-30 12:12 53.81983 9.40860 21832 ft 346 kts 78°
2026-04-30 12:12 53.82390 9.44867 21375 ft 345 kts 79°
2026-04-30 12:12 53.82779 9.48874 20921 ft 344 kts 79°
2026-04-30 12:12 53.83175 9.52854 20468 ft 342 kts 78°
2026-04-30 12:13 53.83781 9.56726 20018 ft 339 kts 69°
2026-04-30 12:13 53.84561 9.60487 19573 ft 338 kts 70°
2026-04-30 12:13 53.85303 9.64256 19128 ft 337 kts 71°
2026-04-30 12:13 53.86039 9.68014 18669 ft 335 kts 71°
2026-04-30 12:14 53.86779 9.71742 18212 ft 333 kts 70°
2026-04-30 12:14 53.87512 9.75443 17774 ft 330 kts 71°
2026-04-30 12:14 53.88241 9.79123 17340 ft 328 kts 71°
2026-04-30 12:14 53.88956 9.82778 16912 ft 326 kts 71°
2026-04-30 12:15 53.89674 9.86417 16476 ft 325 kts 71°
2026-04-30 12:15 53.90385 9.90056 16045 ft 325 kts 71°
2026-04-30 12:15 53.91088 9.93644 15626 ft 324 kts 71°
2026-04-30 12:15 53.91798 9.97271 15198 ft 323 kts 71°
2026-04-30 12:16 53.92505 10.00892 14773 ft 323 kts 71°
2026-04-30 12:16 53.93209 10.04515 14343 ft 324 kts 71°
2026-04-30 12:16 53.93916 10.08153 13893 ft 323 kts 71°
2026-04-30 12:16 53.94623 10.11801 13092 ft 331 kts 71°
2026-04-30 12:17 53.95998 10.18914 12112 ft 293 kts 71°
2026-04-30 12:17 53.96611 10.22087 11738 ft 274 kts 71°
2026-04-30 12:17 53.97186 10.25076 11387 ft 260 kts 71°
2026-04-30 12:18 53.97736 10.27979 11043 ft 257 kts 73°
2026-04-30 12:18 53.97842 10.31006 10760 ft 258 kts 92°
2026-04-30 12:18 53.97750 10.34026 10508 ft 255 kts 89°
2026-04-30 12:18 53.97672 10.37050 10241 ft 258 kts 91°
2026-04-30 12:19 53.97575 10.40110 9968 ft 259 kts 91°
2026-04-30 12:19 53.97471 10.43131 9707 ft 260 kts 91°
2026-04-30 12:19 53.97380 10.46202 9450 ft 261 kts 90°
2026-04-30 12:19 53.97276 10.49284 9186 ft 262 kts 91°
2026-04-30 12:20 53.97177 10.52381 8919 ft 264 kts 91°
2026-04-30 12:20 53.97076 10.55500 8656 ft 265 kts 90°
2026-04-30 12:20 53.96976 10.58639 8382 ft 266 kts 91°
2026-04-30 12:20 53.96867 10.61786 8107 ft 267 kts 91°
2026-04-30 12:21 53.96768 10.64933 7845 ft 265 kts 91°
2026-04-30 12:21 53.96661 10.67998 7582 ft 256 kts 91°
2026-04-30 12:21 53.96559 10.70958 7324 ft 245 kts 91°
2026-04-30 12:21 53.96467 10.73734 7102 ft 233 kts 90°
2026-04-30 12:22 53.96380 10.76442 6878 ft 229 kts 91°
2026-04-30 12:22 53.96280 10.79164 6632 ft 232 kts 91°
2026-04-30 12:22 53.96186 10.81925 6395 ft 236 kts 91°
2026-04-30 12:22 53.96086 10.84687 6149 ft 231 kts 92°
2026-04-30 12:23 53.95995 10.87393 5929 ft 229 kts 92°
2026-04-30 12:23 53.95896 10.90089 5701 ft 227 kts 92°
2026-04-30 12:23 53.95800 10.92774 5481 ft 229 kts 92°
2026-04-30 12:23 53.95707 10.95484 5247 ft 231 kts 92°
2026-04-30 12:24 53.95604 10.98214 5012 ft 231 kts 92°
2026-04-30 12:24 53.95498 11.00939 4754 ft 231 kts 96°
2026-04-30 12:24 53.94864 11.03410 4530 ft 233 kts 128°
2026-04-30 12:24 53.93584 11.05026 4314 ft 231 kts 158°
2026-04-30 12:25 53.92073 11.05857 4080 ft 225 kts 161°
2026-04-30 12:25 53.90604 11.06644 3877 ft 218 kts 163°
2026-04-30 12:25 53.89156 11.07252 3649 ft 212 kts 176°
2026-04-30 12:25 53.87793 11.06600 3513 ft 194 kts 211°
2026-04-30 12:26 53.86928 11.05103 3496 ft 168 kts 241°
2026-04-30 12:26 53.86524 11.03309 3416 ft 165 kts 254°
2026-04-30 12:26 53.86164 11.01444 3280 ft 166 kts 253°
2026-04-30 12:26 53.85813 10.99570 3141 ft 167 kts 254°
2026-04-30 12:27 53.85450 10.97679 3007 ft 168 kts 253°
2026-04-30 12:27 53.85091 10.95781 2855 ft 171 kts 253°
2026-04-30 12:27 53.84726 10.93855 2640 ft 170 kts 253°
2026-04-30 12:27 53.84363 10.91948 2406 ft 168 kts 253°
2026-04-30 12:28 53.84012 10.90101 2160 ft 160 kts 253°
2026-04-30 12:28 53.83692 10.88439 1945 ft 133 kts 252°
2026-04-30 12:28 53.83436 10.87089 1787 ft 119 kts 253°
2026-04-30 12:28 53.83178 10.85750 1624 ft 119 kts 255°
2026-04-30 12:29 53.82928 10.84416 1469 ft 119 kts 253°
2026-04-30 12:29 53.82671 10.83078 1285 ft 120 kts 254°
2026-04-30 12:29 53.82413 10.81737 1121 ft 120 kts 254°
2026-04-30 12:29 53.82159 10.80396 971 ft 121 kts 253°
2026-04-30 12:30 53.81903 10.79075 803 ft 113 kts 254°
2026-04-30 12:30 53.81741 10.78240 658 ft 112 kts 253°
2026-04-30 12:30 53.81429 10.76599 403 ft 109 kts 255°
2026-04-30 12:30 53.81208 10.75390 239 ft 105 kts 254°
2026-04-30 12:31 53.81055 10.74609 204 ft 102 kts 253°
2026-04-30 12:31 53.80828 10.73470 98 ft 103 kts 255°
2026-04-30 12:31 53.80629 10.72384 52 ft 85 kts 252°
2026-04-30 12:31 53.80422 10.71342 58 ft 59 kts 252°
2026-04-30 12:32 53.80362 10.71036 56 ft 31 kts 252°
2026-04-30 12:32 53.80300 10.70706 51 ft 21 kts 253°
2026-04-30 12:32 53.80348 10.70559 55 ft 8 kts 327°
2026-04-30 12:32 53.80399 10.70501 55 ft 9 kts 321°
2026-04-30 12:33 53.80429 10.70461 55 ft 0 kts 323°
2026-04-30 12:33 53.80432 10.70457 55 ft 2 kts 323°
2026-04-30 12:33 53.80440 10.70403 55 ft 8 kts 251°
2026-04-30 12:33 53.80415 10.70274 51 ft 14 kts 252°
2026-04-30 12:34 53.80432 10.70193 55 ft 8 kts 359°
2026-04-30 12:34 53.80445 10.70194 55 ft 3 kts 15°
2026-04-30 12:34 53.80463 10.70206 55 ft 0 kts 50°
2026-04-30 12:34 53.80463 10.70213 55 ft 0 kts 101°